DELTA 1 DEB, 26836

Orbit data source: Space-Track

DELTA 1 DEB, 26836 is space debris in SSO originally from a launch on Thu, 12 Jun 1975 UTC launched from the Air Force Western Test Range (AFWTR). Debris objects in space refer to the collection of defunct objects orbiting the Earth. Examples of debris include non-operational satellites, rocket bodies, and fragments generated from explosions, collisions, or faulty payload assembly.

Loading next visibility...
Identifier
26836, 1975-052KQ
Orbit
SSO
Country
Flag of USUS
Related business
Manufacturer
Unknown
Mission
Spacecraft
Bus & Motor
Unknown
Mass
Unknown
Launch date (UTC)
1975-06-12 (51 years ago)
Launch vehicle
Unknown
Launch site
Air Force Western Test Range (AFWTR)
Object type
Payload
Rocket body
Debris
Shape & HBR
Unknown shape, 0.1 m
Radar Cross Section
Small (<0.1 m²)

Expand to show TLE details & history
Last TLE update: 6 hours ago

TLE from 6 hours ago
0 DELTA 1 DEB
1 26836U 75052KQ  25349.96706008  .00000073  00000-0  25214-3 0  9990
2 26836  99.8387  50.2821 0103727 307.5882 233.3548 13.27031628583863
Epoch: 2025-12-15T23:12Z
TLE epoch observation values (Epoch: 2025-12-15T23:12:33.990Z)
Latitude
-0.10734°
Longitude
157.26392°
Altitude
1,207.925 km
Speed
7.227 km/s
True Right ascension
15h 21m 03s
True Declination
0° 06' 24"
Sunlit
Object was in daylight at epoch
Visualization orbit readout
Latitude
Unknown
Longitude
Unknown
Altitude
Unknown
Speed
Unknown
Apparent Right ascension
Unknown
Apparent Declination
Unknown
Sunlit
N/A
Visualization observer readout
Local Sidereal Time
03:59:50
Azimuth
Unknown
Elevation
Unknown
Doppler factor
Unknown
Orbital elements
Apogee altitude
1,233.462 km
Perigee altitude
1,077.177 km
Semi-major axis
7,533.456 km
Eccentricity
0.01037
Inclination
99.8387°
RAAN
50.2821°
Arg. of periapsis
307.5882°
True anomaly
232.40848°
Mean anomaly
233.3548°
Eccentric anomaly
232.88091°
Mean motion
3.31934 °/min
Orbital period
108.46 mins
BSTAR
0.00025214
Loading maneuver chart data...
Computing Atmospheric mass density...
Loading historical data...
Loading historical data...
Loading historical data...
Loading historical data...
Loading historical data...
Loading historical data...
Loading historical data...

Documentation

Showing up to 5 results
|